Location: Maccacari
(45.1333°N, 11.1333°E)
Time: 06:06:42
(UTC+00:00)

Tiros 1 despin weight - Pass Details

Date: 26 January 2021
Orbit: 593 x 642 km, 48.2° (Epoch: 06 March)

Event Time Altitude Azimuth Distance (km) Brightness Sun altitude
Rises 17:28:49 0° 290° (WNW) 2,864 ? -13.1°
Reaches altitude 10° 17:31:08 10° 289° (WNW) 1,951 ? -13.5°
Maximum altitude 17:35:36 78° 204° (SSW) 615 ? -14.3°
Enters shadow 17:38:56 17° 119° (ESE) 1,512 ? -14.9°
